DEIMOS 2

Satellite information

Favourite Embed

Satellite Type and Status

PAYLOADIN ORBIT

Key statistics

Satellite DEIMOS 2 at a glance.

Uptime

4099

Days in orbit

Revolutions

≈ 14.9

Per day

Orbit

SSO

Sun Synchronous Orbit

Inclination

97.6

Latest

Satellite identification and parameters

Extended collection of information and parameters for DEIMOS 2.

Object identification

Identified? True

Debris? False

Object name: DEIMOS 2

International designator: 2014-033D

Object number (NORAD): 40013

Object ID (CCSDS): 40013

Country: SPAIN (SPN)

Current information (Y/N): Y

RCS size: LARGE

Orbital parameters

Period: 96.491 minutes

Inclination: 97.6192 deg

SMA: 6968.704 km

Apoapsis: 591.732 km

Periapsis: 589.406 km

RAAN: 129.8639 deg

Eccentricy: 0.00016691

Argument of periapsis: 112.3748 deg

Mean anomaly: 247.7648 deg

Mean motion: 14.92363977 rev/day

Mean motion (dot): 0.00001912 rev/day2

B* drag term: 0.00019227262 1/REarth

Two-line elements (TLE)

Creation date: Sept. 8, 2025, 3:16 a.m.

Reference frame: TEME

Reference center: EARTH

Epoch: Sept. 7, 2025, 10:03 p.m. UTC

TLE line 0: 0 DEIMOS 2

TLE line 1: 1 40013U 14033D 25250.91925029 .00001912 00000-0 19227-3 0 9997

TLE line 2: 2 40013 97.6192 129.8639 0001669 112.3748 247.7648 14.92363977595604

Live tracking on map

Real-time ground track for satellite DEIMOS 2.

In-orbit conjunctions

There are no conjunctions computed for DEIMOS 2, at the moment. Check back to stay up to date, as we update our databases every day.

Go to all conjunctions

Associated space launch

DEIMOS 2 was lifted into orbit during the mission ‘Dnepr 1 | Multipayload, 37 satellites.’, on board a Dnepr space rocket.

The launch took place on June 19, 2014, 7:11 p.m. from 370/13.

For more information about the launch, click the button.

Launch to space Dnepr 1 | Multipayload, 37 satellites.
Dnepr 1 | Multipayload, 37 satellites.

Agency: N/A

Status: Launch Successful

Launch date: June 19, 2014, 7:11 p.m. UTC

Rocket: Dnepr

Launch pad: 370/13

Location: Dombarovskiy, Russian Federation

...

Latest news about this satellite

There are no fresh news available about this satellite. Check back as we update our databases every day.


Newsletter sign-up

Weekly statistics, charts and insights to help you stay on top of the space industry.